Location: Rancho Del Sol Observatory
(38.7214°N, 120.6350°W)
Time: 03:43:01
(UTC-08:00)

Courier 1B Rocket - Pass Details

Date: 26 January 2020
Orbit: 920 x 1202 km, 28.2° (Epoch: 19 February)

Event Time Altitude Azimuth Distance (km) Brightness Sun altitude
Rises 12:33:46 0° 249° (WSW) 3,935 8.5 32.4°
Reaches altitude 10° 12:36:52 10° 241° (WSW) 2,932 8.1 32.4°
Maximum altitude 12:43:11 34° 179° (S) 1,623 8.9 32.2°
Drops below altitude 10° 12:49:08 10° 116° (ESE) 2,746 7.7 32.0°
Sets 12:51:56 0° 107° (ESE) 3,656 8.1 32.0°
